Location: Unspecified
(0.0000°N, 0.0000°E)
Time: 07:14:53
(UTC+00:00)

Transit 2A - Visible Passes

Search period start: 20 October 2021 00:00
Search period end: 30 October 2021 00:00
Orbit: 593 x 965 km, 66.7° (Epoch: 19 October)

Date Brightness Start Highest point End Pass type
(mag) Time Alt. Az. Time Alt. Az. Time Alt. Az.
25 Oct 8.6 20:04:14 10° NNW 20:04:50 13° NNW 20:04:50 13° NNW visible
26 Oct 6.9 19:30:05 10° NNW 19:34:20 43° N 19:34:20 43° N visible
27 Oct 6.6 18:56:16 10° N 19:02:05 41° ENE 19:06:50 13° SE visible
27 Oct 8.8 20:41:17 10° WNW 20:44:57 17° WSW 20:48:30 10° SSW visible
28 Oct 7.2 18:22:49 10° NNE 18:27:52 26° ENE 18:32:37 10° ESE visible
28 Oct 8.2 20:05:46 10° NW 20:10:50 27° WSW 20:15:37 10° SSW visible
29 Oct 7.4 19:30:53 10° NW 19:36:42 43° WSW 19:42:07 10° S visible
